User: anonymous   Login
Location: Unspecified
(0.0000°N, 0.0000°E)
Time: 08:51:12
(UTC+02:00)
Language:

ISS - Orbit

View from above orbital plane
View from above orbital plane
View from above satellite
View from above satellite

Ground track
Ground track

The orbit data is extracted from the following two-line orbital elements,

1 25544U 98067A   16151.22418192  .00001966  00000-0  36195-4 0  9993
2 25544  51.6432 147.6394 0001736 130.8166 332.4829 15.54705439  2195
Epoch (UTC): 30 May 2016 05:22:49
Eccentricity: 0.0001736
inclination: 51.6432°
perigee height: 402 km
apogee height: 404 km
right ascension of ascending node: 147.6394°
argument of perigee: 130.8166°
revolutions per day: 15.54705439
mean anomaly at epoch: 332.4829°
orbit number at epoch: 219

The dashed part of the orbit path shows where the satellite is in the earth's shadow,  

DLR